This demonstration page uses our WeatherBlox Daily Observations layout. Learn more.

Left ArrowRight Arrow

Hourly Observations for September 29, 2021

Temp ( °F °C ) Dew Point ( °F °C ) Humidity (%) Winds ( mph kmh ) Pressure ( in mb ) Visibility ( mi km ) Precip ( " mm )
12:53 am 00:53 Clear 69 20.6 53 11.7 57 57 SSE 9 15 29.77 1008 10 16 0.00 0.00
1:53 am 01:53 Clear 68 20 54 12.2 61 61 SSE 10 17 29.77 1008 10 16 0.00 0.00
2:53 am 02:53 Mostly Cloudy 68 20 55 12.8 63 63 SSE 9 15 29.77 1008 10 16 0.00 0.00
3:53 am 03:53 Clear 66 18.9 55 12.8 68 68 SSE 9 15 29.76 1008 10 16 0.00 0.00
4:53 am 04:53 Clear 65 18.3 56 13.3 73 73 SE 9 15 29.77 1008 10 16 0.00 0.00
5:53 am 05:53 Clear 65 18.3 57 13.9 76 76 SE 7 11 29.77 1008 10 16 0.00 0.00
6:53 am 06:53 Clear 64 17.8 57 13.9 78 78 SE 7 11 29.78 1009 10 16 0.00 0.00
7:53 am 07:53 Sunny 64 17.8 57 13.9 78 78 SSE 8 13 29.79 1009 10 16 0.00 0.00
8:53 am 08:53 Mostly Sunny 64 17.8 57 13.9 78 78 SSE 7 11 29.80 1009 10 16 0.00 0.00
9:11 am 09:11 Partly Cloudy with Nearby Thunderstorms 64 17.8 57 13.9 78 78 SSE 12 19 29.82 1010 9 14 0.00 0.00
9:37 am 09:37 Cloudy with Thunderstorms 65 18.3 59 15 81 81 S 13 20 29.84 1010 10 16 0.00 0.00
9:53 am 09:53 Cloudy with Thunderstorms 64 17.8 61 16.1 90 90 SE 9 15 29.87 1012 3 5 0.04 1.02
10:11 am 10:11 Cloudy 65 18.3 61 16.1 87 87 SE 12 19 29.86 1011 10 16 0.01 0.25
10:53 am 10:53 Partly Cloudy 68 20 60 15.6 76 76 SSE 7 11 29.86 1011 10 16 0.01 0.25
11:53 am 11:53 Sunny 73 22.8 59 15 62 62 SSE 6 9 29.84 1010 10 16 0.00 0.00
12:53 pm 12:53 Sunny 75 23.9 60 15.6 60 60 SSE 9 15 29.84 1011 10 16 0.00 0.00
1:53 pm 13:53 Sunny 79 26.1 63 17.2 58 58 SSE 12 19 29.83 1010 10 16 0.00 0.00
2:53 pm 14:53 Sunny 80 26.7 61 16.1 52 52 SE 13 20 29.81 1010 10 16 0.00 0.00
3:53 pm 15:53 Sunny 80 26.7 61 16.1 52 52 SE 9 15 29.81 1010 10 16 0.00 0.00
4:53 pm 16:53 Mostly Sunny 81 27.2 60 15.6 49 49 SSE 13 20 29.82 1010 10 16 0.00 0.00
5:53 pm 17:53 Sunny 79 26.1 56 13.3 45 45 SSE 13 20 29.83 1010 10 16 0.00 0.00
6:53 pm 18:53 Sunny 77 25 57 13.9 50 50 SE 10 17 29.85 1011 10 16 0.00 0.00
7:53 pm 19:53 Clear 73 22.8 59 15 62 62 ESE 7 11 29.87 1012 10 16 0.00 0.00
8:53 pm 20:53 Clear 72 22.2 59 15 64 64 SE 9 15 29.89 1012 10 16 0.00 0.00
9:53 pm 21:53 Clear 71 21.7 61 16.1 71 71 SSE 12 19 29.91 1013 10 16 0.00 0.00
10:53 pm 22:53 Partly Cloudy 71 21.7 62 16.7 73 73 SSE 10 17 29.92 1013 10 16 0.00 0.00
11:53 pm 23:53 Mostly Cloudy 70 21.1 63 17.2 79 79 SSE 10 17 29.93 1013 10 16 0.00 0.00

Powered by AerisWeather